Showing default

KORSAT-2, 62377

Orbit data source: Space-Track

KORSAT-2, 62377 is a payload satellite owned by DAPA (KR) in LEO that was launched on Sat, 21 Dec 2024 UTC via an FALCON 9 launch vehicle from the Air Force Western Test Range (AFWTR). Payload-class satellites include a variety of spacecraft equipped with specific instruments for various scientific and technological missions. These include communications satellites like Starlink; space stations such as the ISS; scientific satellites like the Hubble; Earth observation satellites from companies like Planet Labs, Umbra, and HawkEye 360; GPS; miniature CubeSats for education and research; and military/defense satellites.

Loading next visibility...
Identifier
62377, 2024-247A
Orbit
LEO
Country
Flag of UnknownUnknown / SKOR
Related business
Manufacturer
KAI
Mission
Operational Defense Radar Imaging
Bus & Motor
CAS500?, Unknown motor
Mass
~800 kg wet, ~750 kg dry
Launch date (UTC)
2024-12-21 (10 months ago)
Launch vehicle
FALCON 9
Launch site
Air Force Western Test Range (AFWTR)
Object type
Payload
Rocket body
Debris
Shape & HBR
Hex Box + 3 Pan, 3.0 m
Radar Cross Section
10.467 m², Large (>1 m²)

Expand to show TLE details & history
Last TLE update: 8 hours ago

TLE from 8 hours ago
0 KORSAT-2
1 62377U 24247A   25298.10641028  .00006904  00000-0  58407-3 0  9998
2 62377  45.4085 206.5360 0007159  41.7749 318.3675 14.98692708 46297
Epoch: 2025-10-25T02:33Z
TLE epoch observation values (Epoch: 2025-10-25T02:33:13.848Z)
Latitude
0.00003°
Longitude
134.4866°
Altitude
567.262 km
Speed
7.581 km/s
True Right ascension
13h 46m 08s
True Declination
0° 00' 00"
Sunlit
Object was in daylight at epoch
Visualization orbit readout
Latitude
Unknown
Longitude
Unknown
Altitude
Unknown
Speed
Unknown
Apparent Right ascension
Unknown
Apparent Declination
Unknown
Sunlit
N/A
Visualization observer readout
Local Sidereal Time
06:17:52
Azimuth
Unknown
Elevation
Unknown
Doppler factor
Unknown
Orbital elements
Apogee altitude
577.432 km
Perigee altitude
567.48 km
Semi-major axis
6,950.593 km
Eccentricity
0.00072
Inclination
45.4085°
RAAN
206.536°
Arg. of periapsis
41.7749°
True anomaly
318.31296°
Mean anomaly
318.3675°
Eccentric anomaly
318.34024°
Mean motion
3.74551 °/min
Orbital period
96.12 mins
BSTAR
0.00058407
Loading maneuver chart data...
Computing Atmospheric mass density...
Loading historical data...
Loading historical data...
Loading historical data...
Loading historical data...
Loading historical data...
Loading historical data...
Loading historical data...

Documentation

Showing up to 5 results
|